| time (UTC) | temp F | wind direction | speed MPH | gust MPH | rain 1hr in | rain 24hr in | rain mn in | humidity % | barometer mb |
| 20260504081552 | 0 | 315 | 0.0 | 0.0 | 0.00 | 0.00 | 0.00 | 1007.1 | |
| 20260504050146 | 0 | 321 | 0.0 | 0.0 | 0.00 | 0.00 | 0.00 | 1006.3 | |
| 20260504044538 | 0 | 313 | 0.0 | 0.0 | 0.00 | 0.00 | 0.00 | 1006.0 | |
| 20260504043134 | 0 | 360 | 0.0 | 0.0 | 0.00 | 0.00 | 0.00 | 1006.2 | |
| 20260504041529 | 0 | 355 | 0.0 | 0.0 | 0.00 | 0.00 | 0.00 | 1006.3 | |
| 20260504040026 | 0 | 318 | 0.0 | 0.0 | 0.00 | 0.00 | 0.00 | 1006.2 | |
| 20260504034551 | 0 | 360 | 0.0 | 0.0 | 0.00 | 0.00 | 0.00 | 1006.6 | |
| 20260504033047 | 0 | 322 | 0.0 | 0.0 | 0.00 | 0.00 | 0.00 | 1006.7 | |
| 20260504031539 | 0 | 5 | 0.0 | 0.0 | 0.00 | 0.00 | 0.00 | 1007.1 | |
| 20260504030035 | 0 | 346 | 0.0 | 0.0 | 0.00 | 0.00 | 0.00 | 1007.1 | |
| 20260504024534 | 0 | 360 | 0.0 | 0.0 | 0.00 | 0.00 | 0.00 | 1007.4 | |
| 20260504023026 | 0 | 355 | 0.0 | 0.0 | 0.00 | 0.00 | 0.00 | 1007.9 | |
| 20260504021517 | 0 | 26 | 0.0 | 0.0 | 0.00 | 0.00 | 0.00 | 1008.5 | |
| 20260504020014 | 0 | 311 | 0.0 | 0.0 | 0.00 | 0.00 | 0.00 | 1008.7 | |
| 20260504014517 | 0 | 317 | 0.0 | 0.0 | 0.00 | 0.00 | 0.00 | 1009.1 | |
| 20260504013018 | 0 | 335 | 0.0 | 0.0 | 0.00 | 0.00 | 0.00 | 1009.8 | |
| 20260504011600 | 0 | 322 | 0.0 | 0.0 | 0.00 | 0.00 | 0.00 | 1010.4 | |
| 20260504010053 | 0 | 323 | 0.0 | 0.0 | 0.00 | 0.00 | 0.00 | 1010.8 | |
| 20260504004619 | 0 | 360 | 0.0 | 0.0 | 0.00 | 0.00 | 0.00 | 1011.5 | |
| 20260504003050 | 0 | 317 | 0.0 | 0.0 | 0.00 | 0.00 | 0.00 | 1012.7 | |
| 20260504001555 | 0 | 320 | 0.0 | 0.0 | 0.00 | 0.00 | 0.00 | 1013.8 | |
| 20260504000032 | 0 | 285 | 0.0 | 0.0 | 0.00 | 0.00 | 0.00 | 1015.5 | |
| 20260503234529 | 0 | 313 | 0.0 | 0.0 | 0.00 | 0.00 | 0.00 | 1017.8 | |
| 20260503233023 | 0 | 15 | 0.0 | 0.0 | 0.00 | 0.00 | 0.00 | 1018.1 | |
| 20260503231519 | 0 | 63 | 0.0 | 0.0 | 0.00 | 0.00 | 0.00 | 1018.3 | |
| 20260503230011 | 0 | 360 | 0.0 | 0.0 | 0.00 | 0.00 | 0.00 | 1018.4 | |
| 20260503224507 | 0 | 17 | 0.0 | 0.0 | 0.00 | 0.00 | 0.00 | 1018.6 | |
| 20260503223003 | 0 | 27 | 0.0 | 0.0 | 0.00 | 0.00 | 0.00 | 1018.5 | |
| 20260503221528 | 0 | 341 | 0.0 | 0.0 | 0.00 | 0.00 | 0.00 | 1018.5 | |
| 20260503220026 | 0 | 350 | 0.0 | 0.0 | 0.00 | 0.00 | 0.00 | 1018.6 | |
| 20260503214519 | 0 | 355 | 0.0 | 0.0 | 0.00 | 0.00 | 0.00 | 1018.6 | |
| 20260503213013 | 0 | 24 | 0.0 | 0.0 | 0.00 | 0.00 | 0.00 | 1018.5 | |
| 20260503211509 | 0 | 300 | 0.0 | 0.0 | 0.00 | 0.00 | 0.00 | 1018.4 | |
| 20260503210005 | 0 | 17 | 0.0 | 0.0 | 0.00 | 0.00 | 0.00 | 1018.1 | |
| 20260503204601 | 0 | 10 | 0.0 | 0.0 | 0.00 | 0.00 | 0.00 | 1018.0 | |
| 20260503203043 | 0 | 334 | 0.0 | 0.0 | 0.00 | 0.00 | 0.00 | 1018.1 | |
| 20260503201522 | 0 | 344 | 0.0 | 0.0 | 0.00 | 0.00 | 0.00 | 1018.0 | |
| 20260503200048 | 0 | 338 | 0.0 | 0.0 | 0.00 | 0.00 | 0.00 | 1018.3 | |
| 20260503194545 | 0 | 306 | 0.0 | 0.0 | 0.00 | 0.00 | 0.00 | 1018.4 | |
| 20260503193039 | 0 | 329 | 0.0 | 0.0 | 0.00 | 0.00 | 0.00 | 1018.5 | |
| 20260503191535 | 0 | 340 | 0.0 | 0.0 | 0.00 | 0.00 | 0.00 | 1018.6 | |
| 20260503190036 | 0 | 329 | 0.0 | 0.0 | 0.00 | 0.00 | 0.00 | 1018.6 | |
| 20260503184525 | 0 | 311 | 0.0 | 0.0 | 0.00 | 0.00 | 0.00 | 1018.7 | |
| 20260503183049 | 0 | 343 | 0.0 | 0.0 | 0.00 | 0.00 | 0.00 | 1018.8 | |
| 20260503181554 | 0 | 12 | 0.0 | 0.0 | 0.00 | 0.00 | 0.00 | 1018.9 | |
| 20260503180038 | 0 | 331 | 0.0 | 0.0 | 0.00 | 0.00 | 0.00 | 1019.0 | |
| 20260503174534 | 0 | 326 | 0.0 | 0.0 | 0.00 | 0.00 | 0.00 | 1019.1 | |
| 20260503173029 | 0 | 312 | 0.0 | 0.0 | 0.00 | 0.00 | 0.00 | 1019.2 | |
| 20260503171524 | 0 | 20 | 0.0 | 0.0 | 0.00 | 0.00 | 0.00 | 1019.1 |